Flag for Canada Weather past 2 weeks in Whitehorse, Yukon, Canada

Now
66 °F

Broken clouds.


Feels Like: 66 °F
Forecast: 48 / 66 °F
Wind: 9 mph from Southeast

Location: Withehorse

Current Time: Jul 4, 2015 at 2:21:23 PM

Latest Report: Jul 4, 2015 at 2:00 PM


Visibility: 20 mi

Pressure: 30.28 "Hg (28.10 "Hg at 640m altitude)

Humidity: 60%

Dew point: 52 °F

Location of WhitehorseLocation

Historic Weather in Whitehorse — Graph

°F

Whitehorse temperature yesterday

Maximum temperature yesterday: 57 °F (at 4:00 PM)
Minimum temperature yesterday: 46 °F (at 5:00 AM)
Average temperature yesterday: 50 °F

Past Weeks' High & Low Weather Summary

 TemperatureHumidityPressure
High77 °F (Jun 20, 6:00 PM)100% (Jul 3, 5:00 AM)30.33 "Hg (Jul 3, 5:00 AM)
Low43 °F (Jun 30, 5:00 AM)24% (Jun 20, 6:00 PM)29.78 "Hg (Jun 25, 8:00 PM)
Average59 °F57%30.02 "Hg
* Reported Jun 19 1:00 PM — Jul 4 1:00 PM, Whitehorse, Weather by CustomWeather, © 2015

Note: Actual official high and low records may vary slightly from our data, if they occured in-between our weather recording intervals... More about our weather records

Advertising

Whitehorse weather history for previous 24 hours

 ConditionsComfort  
Time TempWeatherWind HumidityBarometerVisibility
1:00 PM
Sat, Jul 4
63 °FBroken clouds.10 mph68%30.29 "Hg30 mi
12:00 PM61 °FBroken clouds.10 mph72%30.31 "Hg30 mi
11:00 AM57 °FBroken clouds.8 mph82%30.32 "Hg30 mi
10:00 AM54 °FMostly cloudy.9 mph94%30.33 "Hg20 mi
9:00 AM54 °FCloudy.9 mph88%30.33 "Hg15 mi
8:48 AM54 °FCloudy.8 mph94%30.33 "Hg15 mi
8:00 AM50 °FBroken clouds.7 mph100%30.33 "Hg10 mi
7:00 AM50 °FBroken clouds.5 mph100%30.32 "Hg10 mi
6:00 AM48 °FPartly sunny.2 mph100%30.32 "Hg10 mi
5:00 AM48 °FMostly cloudy.2 mph100%30.32 "Hg10 mi
4:00 AM50 °FMostly cloudy.2 mph94%30.31 "Hg10 mi
3:00 AM50 °FMostly cloudy.3 mph100%30.29 "Hg7 mi
2:00 AM50 °FPassing clouds.No wind100%30.29 "Hg7 mi
1:00 AM52 °FMostly cloudy.2 mph100%30.28 "Hg7 mi
12:00 AM54 °FOvercast.No wind94%30.27 "Hg6 mi
11:00 PM
Fri, Jul 3
54 °FOvercast.2 mph94%30.27 "Hg6 mi
10:47 PM52 °FMostly cloudy.2 mph100%30.26 "Hg6 mi
10:00 PM54 °FLight rain. Mostly cloudy.3 mph94%30.25 "Hg5 mi
9:00 PM52 °FLight rain. Overcast.2 mph100%30.24 "Hg3 mi
8:00 PM54 °FSprinkles. Mostly cloudy.No wind88%30.22 "Hg10 mi
7:00 PM54 °FSprinkles. Mostly cloudy.6 mph88%30.21 "Hg15 mi
6:00 PM54 °FSprinkles. Mostly cloudy.2 mph88%30.19 "Hg20 mi
5:00 PM54 °FScattered showers. Mostly cloudy.5 mph82%30.19 "Hg25 mi
4:00 PM57 °FScattered showers. More clouds than sun.17 mph63%30.16 "Hg40 mi
3:00 PM55 °FScattered showers. Mostly cloudy.9 mph67%30.16 "Hg40 mi
2:00 PM52 °FMostly cloudy.2 mph88%30.17 "Hg30 mi
Weather by CustomWeather, © 2015

See weather overviewHow to use our weather pages